Weather observations for the past three days for
Pago Pago, AS, Samoa
Imperial (Metric)
Date Time (sst) Wind (mph) Vis. (mi.) Weather Sky Cond. Temperature (ºF) Relative Humidity Wind Chill (°F) Heat Index (°F) Pressure Precipitation (in)
Air Dwpt 6 hour altimeter (in) sea level (mb) 1 hr 3 hr 6 hr
Max. Min.
23 22:50 E 17 10.00 Partly Cloudy SCT023 80.2 71.6 75% 84 29.89 1012.2
23 21:50 E 21 G 26 10.00 Partly Cloudy and Breezy SCT023 80.8 71.6 74% 85 29.89 1012.2
23 20:50 E 17 G 25 10.00 Partly Cloudy SCT023 80.8 71.6 74% 85 29.88 1012.0
23 19:50 E 21 G 28 10.00 Partly Cloudy and Breezy SCT023 80.6 71.4 74% 85 29.87 1011.5
23 18:50 SE 20 G 25 10.00 Partly Cloudy SCT023 SCT100 80.8 71.2 85.3 80.8 73% 85 29.84 1010.7
23 17:50 SE 17 G 24 12.00 Mostly Cloudy SCT023 BKN100 81.3 71.8 73% 86 29.83 1010.3
23 16:50 E 21 G 26 12.00 Partly Cloudy and Breezy SCT023 SCT100 82 70.5 68% 86 29.82 1010.0
23 15:50 SE 21 G 26 12.00 A Few Clouds and Breezy FEW023 83.1 69.8 64% 87 29.82 1010.0
23 14:50 E 17 G 24 12.00 Partly Cloudy SCT023 83.3 72 69% 89 29.83 1010.3
23 13:50 SE 17 G 25 12.00 Mostly Cloudy BKN025 85.3 72.3 65% 92 29.84 1010.7
23 12:50 E 21 G 29 12.00 Mostly Cloudy and Breezy BKN025 84.9 72 84.9 79.7 65% 91 29.86 1011.3
23 11:50 E 18 G 25 12.00 Partly Cloudy SCT025 84.7 71.4 64% 90 29.89 1012.4
23 10:50 SE 20 G 25 12.00 Partly Cloudy SCT025 84.2 71.1 65% 89 29.92 1013.2
23 09:51 SE 16 G 23 12.00 Partly Cloudy SCT025 82.8 71.4 69% 88 29.93 1013.5
23 08:50 E 16 G 23 12.00 Partly Cloudy SCT025 82.6 70.2 66% 87 29.93 1013.5
23 07:50 SE 14 11.00 Partly Cloudy SCT025 81 70.3 70% 85 29.92 1013.2
23 06:50 E 17 G 22 12.00 A Few Clouds FEW023 79.7 69.6 80.1 79.5 71% 83 29.91 1012.7
23 05:50 E 17 11.00 Partly Cloudy SCT023 79.5 69.8 72% 82 29.89 1012.2
23 04:50 SE 16 G 21 10.00 A Few Clouds FEW023 79.7 70 72% 83 29.87 1011.7
23 03:50 E 15 10.00 Partly Cloudy SCT023 79.5 69.8 72% 82 29.87 1011.7
23 02:50 E 15 G 22 10.00 Partly Cloudy SCT023 79.9 70.9 74% 83 29.87 1011.7
23 01:50 E 17 G 21 10.00 Partly Cloudy SCT023 79.9 70.3 73% 83 29.88 1011.9
23 00:50 E 18 G 23 10.00 Partly Cloudy SCT022 80.1 70 81.1 80.1 71% 83 29.9 1012.5
22 23:50 E 20 G 24 10.00 Partly Cloudy SCT022 SCT040 80.2 71.1 74% 84 29.9 1012.5
22 22:50 E 18 G 24 10.00 Partly Cloudy SCT023 80.4 71.1 73% 84 29.91 1013.0
22 21:50 E 18 G 25 10.00 Partly Cloudy SCT023 80.8 71.6 74% 85 29.92 1013.2
22 20:50 E 20 G 25 10.00 Partly Cloudy SCT023 80.6 71.8 75% 85 29.92 1013.2
22 19:50 E 18 G 24 10.00 Partly Cloudy SCT023 81 72.3 75% 85 29.91 1012.9
22 18:50 E 16 10.00 Partly Cloudy SCT023 81.1 72.3 86.9 81.1 75% 86 29.91 1012.9
22 17:50 E 17 12.00 Partly Cloudy SCT023 81.7 72.1 73% 86 29.89 1012.4
22 16:50 E 18 G 24 12.00 Partly Cloudy SCT023 82.9 72 70% 88 29.87 1011.7
22 15:50 E 18 G 24 12.00 Partly Cloudy SCT023 84.2 72.5 68% 90 29.87 1011.5
22 14:50 E 21 G 24 10.00 Mostly Cloudy and Breezy SCT024 BKN025 84.2 74.3 72% 92 29.87 1011.5
22 13:50 E 16 G 22 11.00 Mostly Cloudy SCT024 BKN025 85.8 73.2 66% 93 29.88 1012.0
22 12:50 E 18 G 23 10.00 Mostly Cloudy SCT024 BKN025 86.9 73.2 86.9 79.9 64% 94 29.9 1012.7
22 11:50 E 17 G 23 12.00 Partly Cloudy SCT024 SCT025 85.5 73.4 67% 93 29.92 1013.4
22 10:50 E 17 G 24 12.00 Partly Cloudy SCT024 SCT025 85.5 72.9 66% 92 29.94 1014.1
22 09:50 E 22 G 29 12.00 Mostly Cloudy and Breezy SCT024 BKN025 84.4 72.3 67% 90 29.96 1014.6
22 08:50 E 18 12.00 Mostly Cloudy SCT024 BKN025 82.8 72 70% 88 29.95 1014.2
22 07:50 E 22 G 26 12.00 Mostly Cloudy and Breezy SCT024 BKN025 80.6 70.5 71% 84 29.94 1014.1
22 06:50 E 20 G 29 12.00 Partly Cloudy SCT022 SCT100 79.9 70.7 80.8 79.9 74% 83 29.92 1013.4
22 05:50 E 18 G 29 11.00 Partly Cloudy FEW022 SCT100 80.8 72 75% 85 29.91 1013.0
22 04:50 E 18 G 25 10.00 Partly Cloudy SCT023 80.4 71.2 74% 84 29.91 1012.9
22 03:50 E 18 G 25 10.00 Partly Cloudy SCT023 80.2 70.9 73% 84 29.9 1012.7
22 02:50 E 23 G 30 10.00 Partly Cloudy and Breezy SCT023 80.2 70.2 71% 84 29.91 1012.9
22 01:50 E 21 G 30 10.00 Partly Cloudy and Breezy SCT022 80.2 72 76% 84 29.92 1013.4
22 00:50 E 21 G 26 10.00 Partly Cloudy and Breezy SCT023 80.4 70.7 81.3 80.4 72% 84 29.94 1013.9
21 23:50 E 22 G 28 10.00 Partly Cloudy and Breezy SCT023 80.4 70.7 72% 84 29.96 1014.6
21 22:50 E 18 G 29 10.00 Mostly Cloudy FEW024 SCT040 BKN100 80.8 71.6 74% 85 29.96 1014.6
21 21:50 E 18 G 28 10.00 Mostly Cloudy FEW024 SCT040 BKN100 80.8 72.1 75% 85 29.97 1014.9
21 20:50 E 22 G 30 10.00 Mostly Cloudy and Breezy FEW024 SCT040 BKN100 81.1 72.7 76% 86 29.97 1014.9
21 19:50 E 21 G 29 10.00 Mostly Cloudy and Breezy FEW024 SCT040 BKN100 81 73.2 77% 86 29.95 1014.4
21 18:50 E 22 G 30 10.00 Mostly Cloudy and Breezy FEW024 SCT040 BKN100 81.3 73.4 85.3 81.3 77% 87 29.94 1014.1
21 17:50 E 16 G 24 12.00 Partly Cloudy FEW024 SCT040 81.7 73 75% 87 29.94 1013.9
21 16:50 E 18 G 25 12.00 Partly Cloudy FEW024 SCT040 82.4 72.9 73% 88 29.93 1013.5
21 15:50 E 17 G 22 12.00 Mostly Cloudy SCT024 BKN040 84.6 73.6 70% 92 29.93 1013.5
21 14:50 E 17 G 24 12.00 Mostly Cloudy SCT024 BKN040 85.3 73.8 69% 93 29.93 1013.7
21 13:50 E 18 G 25 12.00 Partly Cloudy SCT024 SCT040 85.3 73.6 68% 93 29.95 1014.2
21 12:50 E 16 G 24 12.00 Mostly Cloudy SCT024 BKN040 BKN100 85.1 74.8 85.3 79.9 71% 93 29.98 1015.2
21 11:50 E 17 G 24 12.00 Mostly Cloudy FEW024 SCT040 BKN100 85.3 72.3 65% 92 30 1016.1
21 10:50 E 17 G 23 12.00 Mostly Cloudy SCT024 BKN040 84.9 72.3 66% 91 30.02 1016.6
21 09:50 E 20 G 26 12.00 Mostly Cloudy SCT024 BKN040 83.1 72.3 70% 89 30.03 1016.9
21 08:50 E 20 G 25 12.00 Partly Cloudy FEW024 SCT040 82.9 70.5 66% 87 30.02 1016.8
21 07:50 E 17 G 23 12.00 Mostly Cloudy FEW024 SCT040 BKN100 80.2 72 76% 84 30 1016.1
21 06:50 E 21 G 25 12.00 Mostly Cloudy and Breezy FEW019 SCT040 BKN100 79.9 71.4 80.6 78.6 75% 83 29.99 1015.6
21 05:50 E 21 G 28 11.00 Mostly Cloudy and Breezy SCT019 SCT040 BKN100 80.1 71.8 76% 84 29.98 1015.4
21 04:50 E 20 G 24 10.00 Mostly Cloudy SCT020 SCT040 BKN100 78.6 71.6 79% 81 29.98 1015.2
21 03:50 E 16 G 24 10.00 Partly Cloudy SCT023 SCT040 80.4 70.5 72% 84 29.97 1015.1
21 02:50 E 23 G 28 10.00 Partly Cloudy and Breezy FEW022 SCT040 79.9 68.7 69% 83 29.98 1015.2
21 01:50 SE 18 G 25 10.00 Partly Cloudy FEW022 SCT040 80.1 69.4 70% 83 29.99 1015.7
21 00:50 SE 18 G 25 10.00 Mostly Cloudy FEW022 SCT040 BKN100 80.6 71.1 80.8 79.7 73% 84 30 1015.9
20 23:50 SE 20 G 25 10.00 Mostly Cloudy FEW022 SCT040 BKN100 79.7 69.3 71% 83 30 1016.1
Date Time (sst) Wind (mph) Vis. (mi.) Weather Sky Cond. Air Dwpt Max. Min. Relative Humidity Wind Chill (°F) Heat Index (°F) altimeter (in) sea level (mb) 1 hr 3 hr 6 hr
6 hour
Temperature (ºF) Pressure Precipitation (in)